| time (UTC) | temp F | wind direction | speed MPH | gust MPH | rain 1hr in | rain 24hr in | rain mn in | humidity % | barometer mb |
| 20260505024720 | 47 | 353 | 2.0 | 5.0 | 0.00 | 0.00 | 0.00 | 47 | 1016.9 |
| 20260505024217 | 47 | 14 | 2.0 | 2.0 | 0.00 | 0.00 | 0.00 | 48 | 1016.9 |
| 20260505023715 | 48 | 329 | 3.0 | 3.0 | 0.00 | 0.00 | 0.00 | 48 | 1017.0 |
| 20260505023212 | 48 | 331 | 3.0 | 3.0 | 0.00 | 0.00 | 0.00 | 47 | 1016.9 |
| 20260505022709 | 48 | 314 | 5.0 | 7.0 | 0.00 | 0.00 | 0.00 | 47 | 1017.2 |
| 20260505022206 | 48 | 347 | 3.0 | 5.0 | 0.00 | 0.00 | 0.00 | 49 | 1017.0 |
| 20260505021703 | 48 | 19 | 3.0 | 3.0 | 0.00 | 0.00 | 0.00 | 50 | 1017.0 |
| 20260505021200 | 49 | 2 | 2.0 | 3.0 | 0.00 | 0.00 | 0.00 | 50 | 1016.8 |
| 20260505020655 | 49 | 0 | 4.0 | 5.0 | 0.00 | 0.00 | 0.00 | 48 | 1016.9 |
| 20260505020151 | 50 | 325 | 3.0 | 5.0 | 0.00 | 0.00 | 0.00 | 46 | 1016.9 |
| 20260505015649 | 50 | 332 | 7.0 | 9.0 | 0.00 | 0.00 | 0.00 | 44 | 1016.6 |
| 20260505015145 | 50 | 19 | 7.0 | 9.0 | 0.00 | 0.00 | 0.00 | 45 | 1016.7 |
| 20260505014642 | 51 | 2 | 6.0 | 8.0 | 0.00 | 0.00 | 0.00 | 45 | 1016.8 |
| 20260505014139 | 51 | 351 | 4.0 | 7.0 | 0.00 | 0.00 | 0.00 | 46 | 1016.8 |
| 20260505013637 | 51 | 20 | 5.0 | 6.0 | 0.00 | 0.00 | 0.00 | 46 | 1016.7 |
| 20260505013133 | 51 | 45 | 5.0 | 6.0 | 0.00 | 0.00 | 0.00 | 47 | 1016.8 |
| 20260505012632 | 51 | 355 | 5.0 | 7.0 | 0.00 | 0.00 | 0.00 | 48 | 1016.8 |
| 20260505012128 | 51 | 13 | 6.0 | 8.0 | 0.00 | 0.00 | 0.00 | 49 | 1016.6 |
| 20260505011624 | 51 | 354 | 5.0 | 7.0 | 0.00 | 0.00 | 0.00 | 49 | 1016.6 |
| 20260505011122 | 51 | 335 | 3.0 | 5.0 | 0.00 | 0.00 | 0.00 | 52 | 1016.7 |
| 20260505010617 | 51 | 14 | 5.0 | 8.0 | 0.00 | 0.00 | 0.00 | 53 | 1016.7 |
| 20260505010114 | 52 | 5 | 3.0 | 3.0 | 0.00 | 0.00 | 0.00 | 53 | 1016.8 |
| 20260505005610 | 52 | 358 | 6.0 | 8.0 | 0.00 | 0.00 | 0.00 | 49 | 1016.7 |
| 20260505005107 | 52 | 321 | 6.0 | 9.0 | 0.00 | 0.00 | 0.00 | 51 | 1016.6 |
| 20260505004604 | 52 | 348 | 3.0 | 3.0 | 0.00 | 0.00 | 0.00 | 50 | 1016.7 |
| 20260505004101 | 52 | 20 | 6.0 | 8.0 | 0.00 | 0.00 | 0.00 | 51 | 1016.8 |
| 20260505003558 | 52 | 329 | 4.0 | 6.0 | 0.00 | 0.00 | 0.00 | 50 | 1016.7 |
| 20260505003055 | 53 | 54 | 4.0 | 6.0 | 0.00 | 0.00 | 0.00 | 50 | 1016.7 |
| 20260505002555 | 53 | 336 | 4.0 | 5.0 | 0.00 | 0.00 | 0.00 | 50 | 1016.7 |
| 20260505002049 | 53 | 346 | 4.0 | 5.0 | 0.00 | 0.00 | 0.00 | 50 | 1016.7 |
| 20260505001546 | 53 | 326 | 5.0 | 7.0 | 0.00 | 0.00 | 0.00 | 49 | 1016.7 |
| 20260505001043 | 53 | 349 | 5.0 | 7.0 | 0.00 | 0.00 | 0.00 | 51 | 1016.7 |
| 20260505000541 | 53 | 54 | 3.0 | 6.0 | 0.00 | 0.00 | 0.00 | 51 | 1016.5 |
| 20260505000038 | 53 | 357 | 6.0 | 7.0 | 0.00 | 0.00 | 0.00 | 50 | 1016.5 |
| 20260504235535 | 53 | 322 | 5.0 | 9.0 | 0.00 | 0.00 | 0.00 | 49 | 1016.5 |
| 20260504235031 | 54 | 327 | 7.0 | 9.0 | 0.00 | 0.00 | 0.00 | 49 | 1016.3 |
| 20260504234528 | 54 | 45 | 6.0 | 10.0 | 0.00 | 0.00 | 0.00 | 48 | 1016.5 |
| 20260504234025 | 54 | 295 | 7.0 | 10.0 | 0.00 | 0.00 | 0.00 | 49 | 1016.4 |
| 20260504233520 | 55 | 1 | 8.0 | 9.0 | 0.00 | 0.00 | 0.00 | 48 | 1016.3 |
| 20260504233018 | 55 | 3 | 9.0 | 11.0 | 0.00 | 0.00 | 0.00 | 49 | 1016.1 |
| 20260504232515 | 54 | 311 | 7.0 | 8.0 | 0.00 | 0.00 | 0.00 | 48 | 1016.3 |
| 20260504232012 | 55 | 314 | 9.0 | 11.0 | 0.00 | 0.00 | 0.00 | 45 | 1016.0 |
| 20260504231509 | 56 | 288 | 9.0 | 14.0 | 0.00 | 0.00 | 0.00 | 45 | 1016.0 |
| 20260504231005 | 56 | 323 | 5.0 | 6.0 | 0.00 | 0.00 | 0.00 | 47 | 1016.1 |
| 20260504230501 | 56 | 10 | 8.0 | 9.0 | 0.00 | 0.00 | 0.00 | 45 | 1016.1 |
| 20260504230000 | 57 | 319 | 11.0 | 15.0 | 0.00 | 0.00 | 0.00 | 44 | 1015.8 |
| 20260504225457 | 58 | 342 | 7.0 | 9.0 | 0.00 | 0.00 | 0.00 | 43 | 1015.8 |
| 20260504224954 | 58 | 322 | 4.0 | 6.0 | 0.00 | 0.00 | 0.00 | 43 | 1015.9 |
| 20260504224450 | 57 | 0 | 11.0 | 13.0 | 0.00 | 0.00 | 0.00 | 44 | 1015.8 |
| 20260504223947 | 57 | 266 | 8.0 | 11.0 | 0.00 | 0.00 | 0.00 | 46 | 1015.9 |
| 20260504223444 | 58 | 5 | 6.0 | 8.0 | 0.00 | 0.00 | 0.00 | 43 | 1015.6 |
| 20260504222939 | 58 | 322 | 4.0 | 8.0 | 0.00 | 0.00 | 0.00 | 44 | 1015.7 |
| 20260504222437 | 58 | 347 | 8.0 | 9.0 | 0.00 | 0.00 | 0.00 | 44 | 1015.7 |
| 20260504221935 | 58 | 3 | 5.0 | 7.0 | 0.00 | 0.00 | 0.00 | 43 | 1015.6 |
| 20260504221431 | 59 | 2 | 5.0 | 8.0 | 0.00 | 0.00 | 0.00 | 42 | 1015.5 |
| 20260504220928 | 59 | 22 | 5.0 | 7.0 | 0.00 | 0.00 | 0.00 | 41 | 1015.8 |
| 20260504220425 | 59 | 338 | 5.0 | 6.0 | 0.00 | 0.00 | 0.00 | 40 | 1015.9 |
| 20260504215922 | 59 | 358 | 5.0 | 7.0 | 0.00 | 0.00 | 0.00 | 42 | 1015.6 |
| 20260504215419 | 59 | 227 | 7.0 | 10.0 | 0.00 | 0.00 | 0.00 | 41 | 1015.6 |
| 20260504214915 | 59 | 10 | 5.0 | 8.0 | 0.00 | 0.00 | 0.00 | 40 | 1015.7 |
| 20260504214412 | 59 | 353 | 4.0 | 7.0 | 0.00 | 0.00 | 0.00 | 38 | 1015.6 |
| 20260504213909 | 58 | 320 | 6.0 | 8.0 | 0.00 | 0.00 | 0.00 | 40 | 1015.7 |
| 20260504213404 | 59 | 330 | 5.0 | 8.0 | 0.00 | 0.00 | 0.00 | 38 | 1015.8 |
| 20260504212903 | 59 | 309 | 5.0 | 7.0 | 0.00 | 0.00 | 0.00 | 40 | 1015.7 |
| 20260504212358 | 58 | 319 | 5.0 | 6.0 | 0.00 | 0.00 | 0.00 | 38 | 1015.9 |
| 20260504211856 | 57 | 24 | 2.0 | 2.0 | 0.00 | 0.00 | 0.00 | 40 | 1015.8 |
| 20260504211352 | 56 | 256 | 2.0 | 2.0 | 0.00 | 0.00 | 0.00 | 39 | 1015.9 |
| 20260504210849 | 56 | 251 | 5.0 | 6.0 | 0.00 | 0.00 | 0.00 | 40 | 1016.1 |
| 20260504210346 | 57 | 333 | 2.0 | 2.0 | 0.00 | 0.00 | 0.00 | 41 | 1016.0 |
| 20260504205843 | 58 | 34 | 4.0 | 5.0 | 0.00 | 0.00 | 0.00 | 38 | 1016.1 |
| 20260504205341 | 57 | 288 | 9.0 | 9.0 | 0.00 | 0.00 | 0.00 | 39 | 1016.3 |
| 20260504204839 | 57 | 331 | 5.0 | 8.0 | 0.00 | 0.00 | 0.00 | 42 | 1016.0 |
| 20260504204337 | 56 | 15 | 8.0 | 10.0 | 0.00 | 0.00 | 0.00 | 41 | 1016.6 |
| 20260504203836 | 56 | 11 | 7.0 | 9.0 | 0.00 | 0.00 | 0.00 | 41 | 1016.1 |
| 20260504203333 | 57 | 322 | 5.0 | 7.0 | 0.00 | 0.00 | 0.00 | 42 | 1016.3 |
| 20260504202828 | 57 | 335 | 3.0 | 3.0 | 0.00 | 0.00 | 0.00 | 43 | 1016.4 |
| 20260504202326 | 55 | 233 | 3.0 | 5.0 | 0.00 | 0.00 | 0.00 | 41 | 1016.4 |
| 20260504201822 | 55 | 298 | 4.0 | 5.0 | 0.00 | 0.00 | 0.00 | 41 | 1016.5 |
| 20260504201320 | 56 | 99 | 1.0 | 1.0 | 0.00 | 0.00 | 0.00 | 38 | 1016.4 |
| 20260504200817 | 55 | 351 | 3.0 | 3.0 | 0.00 | 0.00 | 0.00 | 39 | 1016.5 |
| 20260504200314 | 55 | 303 | 3.0 | 3.0 | 0.00 | 0.00 | 0.00 | 39 | 1016.5 |
| 20260504195810 | 55 | 295 | 2.0 | 2.0 | 0.00 | 0.00 | 0.00 | 39 | 1016.7 |
| 20260504195306 | 55 | 350 | 3.0 | 3.0 | 0.00 | 0.00 | 0.00 | 41 | 1016.8 |
| 20260504194803 | 55 | 20 | 3.0 | 5.0 | 0.00 | 0.00 | 0.00 | 43 | 1016.7 |
| 20260504194259 | 56 | 13 | 6.0 | 9.0 | 0.00 | 0.00 | 0.00 | 40 | 1016.6 |
| 20260504193755 | 56 | 333 | 5.0 | 7.0 | 0.00 | 0.00 | 0.00 | 39 | 1016.5 |
| 20260504193253 | 55 | 122 | 6.0 | 8.0 | 0.00 | 0.00 | 0.00 | 41 | 1016.7 |
| 20260504192751 | 56 | 30 | 5.0 | 6.0 | 0.00 | 0.00 | 0.00 | 39 | 1016.6 |
| 20260504192249 | 55 | 354 | 5.0 | 7.0 | 0.00 | 0.00 | 0.00 | 42 | 1016.5 |
| 20260504191747 | 55 | 6 | 5.0 | 6.0 | 0.00 | 0.00 | 0.00 | 41 | 1016.6 |
| 20260504191244 | 55 | 38 | 6.0 | 9.0 | 0.00 | 0.00 | 0.00 | 42 | 1016.7 |
| 20260504190739 | 54 | 341 | 5.0 | 7.0 | 0.00 | 0.00 | 0.00 | 44 | 1016.6 |
| 20260504190236 | 54 | 320 | 6.0 | 8.0 | 0.00 | 0.00 | 0.00 | 42 | 1016.8 |
| 20260504185732 | 54 | 11 | 5.0 | 7.0 | 0.00 | 0.00 | 0.00 | 43 | 1016.8 |
| 20260504185229 | 54 | 13 | 5.0 | 7.0 | 0.00 | 0.00 | 0.00 | 44 | 1016.6 |
| 20260504184725 | 54 | 23 | 3.0 | 3.0 | 0.00 | 0.00 | 0.00 | 46 | 1016.5 |
| 20260504184221 | 54 | 31 | 7.0 | 9.0 | 0.00 | 0.00 | 0.00 | 44 | 1016.7 |
| 20260504183717 | 54 | 34 | 4.0 | 5.0 | 0.00 | 0.00 | 0.00 | 47 | 1016.8 |
| 20260504183214 | 54 | 12 | 6.0 | 7.0 | 0.00 | 0.00 | 0.00 | 45 | 1016.9 |
| 20260504182713 | 54 | 14 | 6.0 | 8.0 | 0.00 | 0.00 | 0.00 | 47 | 1016.9 |
| 20260504182209 | 54 | 42 | 6.0 | 7.0 | 0.00 | 0.00 | 0.00 | 46 | 1016.8 |
| 20260504181707 | 55 | 14 | 4.0 | 5.0 | 0.00 | 0.00 | 0.00 | 46 | 1016.8 |
| 20260504181204 | 54 | 1 | 1.0 | 2.0 | 0.00 | 0.00 | 0.00 | 46 | 1016.8 |
| 20260504180703 | 55 | 352 | 3.0 | 5.0 | 0.00 | 0.00 | 0.00 | 45 | 1016.8 |
| 20260504180202 | 55 | 7 | 2.0 | 2.0 | 0.00 | 0.00 | 0.00 | 45 | 1016.8 |
| 20260504175658 | 55 | 295 | 5.0 | 5.0 | 0.00 | 0.00 | 0.00 | 43 | 1016.8 |
| 20260504175155 | 55 | 16 | 2.0 | 2.0 | 0.00 | 0.00 | 0.00 | 43 | 1016.8 |
| 20260504174653 | 55 | 34 | 0.0 | 1.0 | 0.00 | 0.00 | 0.00 | 43 | 1016.9 |
| 20260504174150 | 55 | 49 | 1.0 | 2.0 | 0.00 | 0.00 | 0.00 | 47 | 1016.6 |
| 20260504173647 | 55 | 356 | 1.0 | 3.0 | 0.00 | 0.00 | 0.00 | 45 | 1016.8 |
| 20260504173144 | 55 | 320 | 0.0 | 1.0 | 0.00 | 0.00 | 0.00 | 45 | 1016.8 |
| 20260504172641 | 56 | 349 | 1.0 | 2.0 | 0.00 | 0.00 | 0.00 | 43 | 1016.9 |
| 20260504172137 | 55 | 61 | 0.0 | 0.0 | 0.00 | 0.00 | 0.00 | 44 | 1016.9 |
| 20260504171633 | 55 | 255 | 0.0 | 0.0 | 0.00 | 0.00 | 0.00 | 43 | 1016.9 |
| 20260504171131 | 54 | 292 | 1.0 | 1.0 | 0.00 | 0.00 | 0.00 | 45 | 1016.9 |
| 20260504170627 | 55 | 122 | 1.0 | 2.0 | 0.00 | 0.00 | 0.00 | 44 | 1016.9 |
| 20260504170125 | 56 | 36 | 2.0 | 3.0 | 0.00 | 0.00 | 0.00 | 45 | 1016.9 |
| 20260504151010 | 50 | 296 | 3.0 | 3.0 | 0.00 | 0.00 | 0.00 | 53 | 1017.5 |
| 20260504150508 | 50 | 239 | 4.0 | 5.0 | 0.00 | 0.00 | 0.00 | 53 | 1017.6 |
| 20260504140933 | 48 | 288 | 4.0 | 5.0 | 0.00 | 0.00 | 0.00 | 59 | 1017.6 |
| 20260504140430 | 47 | 259 | 3.0 | 3.0 | 0.00 | 0.00 | 0.00 | 59 | 1017.6 |
| 20260504130355 | 44 | 293 | 2.0 | 2.0 | 0.00 | 0.00 | 0.00 | 65 | 1017.2 |
| 20260504120318 | 42 | 327 | 1.0 | 2.0 | 0.00 | 0.00 | 0.00 | 65 | 1016.7 |
| 20260504110242 | 44 | 5 | 1.0 | 2.0 | 0.00 | 0.00 | 0.00 | 61 | 1016.7 |
| 20260504100200 | 48 | 355 | 6.0 | 7.0 | 0.00 | 0.00 | 0.00 | 51 | 1015.8 |
| 20260504090122 | 51 | 313 | 4.0 | 5.0 | 0.00 | 0.00 | 0.00 | 52 | 1014.7 |
| 20260504081552 | 52 | 15 | 8.0 | 9.0 | 0.00 | 0.00 | 0.00 | 51 | 1012.6 |
| 20260504081048 | 46 | 316 | 1.0 | 2.0 | 0.00 | 0.00 | 0.00 | 57 | 1012.9 |
| 20260504080545 | 45 | 328 | 1.0 | 1.0 | 0.00 | 0.00 | 0.00 | 64 | 1012.6 |
| 20260504050358 | 57 | 340 | 0.0 | 0.0 | 0.00 | 0.00 | 0.00 | 33 | 1011.1 |
| 20260504045855 | 57 | 340 | 0.0 | 0.0 | 0.00 | 0.00 | 0.00 | 31 | 1010.9 |
| 20260504045350 | 58 | 275 | 1.0 | 1.0 | 0.00 | 0.00 | 0.00 | 31 | 1010.8 |
| 20260504044847 | 57 | 223 | 0.0 | 0.0 | 0.00 | 0.00 | 0.00 | 32 | 1011.0 |
| 20260504044344 | 57 | 228 | 2.0 | 2.0 | 0.00 | 0.00 | 0.00 | 33 | 1010.9 |
| 20260504043842 | 56 | 250 | 2.0 | 2.0 | 0.00 | 0.00 | 0.00 | 34 | 1010.9 |
| 20260504043338 | 55 | 7 | 0.0 | 0.0 | 0.00 | 0.00 | 0.00 | 36 | 1011.0 |
| 20260504042836 | 55 | 20 | 0.0 | 0.0 | 0.00 | 0.00 | 0.00 | 37 | 1010.8 |
| 20260504042332 | 56 | 1 | 0.0 | 0.0 | 0.00 | 0.00 | 0.00 | 36 | 1010.7 |
| 20260504041828 | 56 | 322 | 0.0 | 0.0 | 0.00 | 0.00 | 0.00 | 36 | 1010.8 |
| 20260504041325 | 56 | 349 | 0.0 | 0.0 | 0.00 | 0.00 | 0.00 | 37 | 1010.7 |
| 20260504040821 | 57 | 2 | 0.0 | 1.0 | 0.00 | 0.00 | 0.00 | 35 | 1011.0 |
| 20260504040319 | 57 | 345 | 1.0 | 1.0 | 0.00 | 0.00 | 0.00 | 36 | 1010.9 |
| 20260504035814 | 56 | 139 | 0.0 | 1.0 | 0.00 | 0.00 | 0.00 | 37 | 1010.6 |
| 20260504035312 | 55 | 153 | 3.0 | 3.0 | 0.00 | 0.00 | 0.00 | 40 | 1010.5 |
| 20260504034809 | 55 | 25 | 0.0 | 0.0 | 0.00 | 0.00 | 0.00 | 40 | 1010.2 |
| 20260504034307 | 57 | 26 | 2.0 | 2.0 | 0.00 | 0.00 | 0.00 | 37 | 1010.5 |
| 20260504033804 | 57 | 358 | 1.0 | 2.0 | 0.00 | 0.00 | 0.00 | 36 | 1010.3 |
| 20260504033301 | 57 | 338 | 2.0 | 2.0 | 0.00 | 0.00 | 0.00 | 37 | 1010.2 |
| 20260504032758 | 60 | 345 | 2.0 | 2.0 | 0.00 | 0.00 | 0.00 | 37 | 1010.3 |
| 20260504032255 | 64 | 294 | 5.0 | 7.0 | 0.00 | 0.00 | 0.00 | 28 | 1010.1 |
| 20260504031751 | 64 | 260 | 7.0 | 8.0 | 0.00 | 0.00 | 0.00 | 27 | 1010.1 |
| 20260504031249 | 64 | 276 | 7.0 | 8.0 | 0.00 | 0.00 | 0.00 | 28 | 1009.9 |
| 20260504030745 | 65 | 282 | 9.0 | 11.0 | 0.00 | 0.00 | 0.00 | 27 | 1010.1 |
| 20260504030242 | 66 | 275 | 10.0 | 11.0 | 0.00 | 0.00 | 0.00 | 27 | 1010.0 |
| 20260504025738 | 64 | 280 | 9.0 | 10.0 | 0.00 | 0.00 | 0.00 | 27 | 1009.9 |
| 20260504025236 | 63 | 301 | 7.0 | 7.0 | 0.00 | 0.00 | 0.00 | 31 | 1009.9 |